Sokodé Airport

Jump to: basic info | weather | comments

Related pages: nearby airports | nearby navaids | notams | map

Basic information (top)

Codes: DXSK
Location: lon 8.983000, lat 1.150000, elev 1,214 ft / 370 m msl
Status: small_airport
Scheduled airline service: no
Links: Wikipedia Mobile

Weather (top)

Current conditions (rec'd 2015/04/26 09:00Z):

DXSK 260900Z 14002KT CAVOK 30/22 Q////

Airport forecast for Niamtougou International Airport 47nm (87km) N (rec'd 2015/04/26 06:42Z):

TAF TAF DXNG 260500Z 2606/2706 24010KT 9999 FEW014 
      TEMPO 2512/2619 TS BKN014 FEW020CB

Latest comments (top)

No comments yet for Sokodé Airport

More... (top)

See also NOTAMs and nearby airports and navaids, or visit the Sokodé Airport page at the main OurAirports website..